[[{"header":{"parameterUnit":"m.s-1","parameterCategory":1,"la1":30.2991,"la2":30.254,"lo1":-89.0895,"lo2":-89.0444,"dy":0.0017,"dx":0.0017,"nx":28,"ny":28,"refTime":"2023-04-03T21:00:00:Z","depth":0,"parameterNumber":2,"parameterNumberName":"U-component_of_WINDS"},"data":[0,0,0,0,0,0,0,0,0,0,0,0,0,0,0,0,0,0,0,0,0,0,0,0,0,0,0,0,0,0,0,0,0,0,0,0,0,0,0,0,0,0,0,0,0,0,0,0,0,0,0,0,0,0,0,0,0,0,-1.8008,-1.8008,0,-1.8,-1.8,-1.8,-1.7997,-1.7997,-1.7997,-1.7997,-1.7988,-1.7988,-1.7988,0,0,0,0,0,0,0,0,0,0,0,0,0,-1.8021,-1.8021,-1.8009,-1.8008,-1.8008,-1.8,-1.8,-1.8,-1.7997,-1.7997,-1.7997,-1.7997,-1.7988,-1.7988,-1.7988,0,0,0,0,0,0,0,0,0,0,0,0,0,-1.8014,-1.8021,-1.8009,-1.8006,-1.8005,-1.8,-1.8,-1.8,-1.7997,-1.7997,-1.7997,-1.7997,-1.7988,-1.7988,-1.7988,-1.7985,0,0,-1.7987,-1.7986,0,0,0,0,0,0,0,0,-1.8015,-1.8014,-1.8006,-1.8006,-1.8006,-1.8,-1.8001,-1.7995,-1.7997,-1.8,-1.7997,-1.7997,-1.7992,-1.7991,-1.799,-1.7984,-1.7984,-1.7987,-1.7986,-1.7986,-1.7986,0,0,0,0,0,0,0,-1.8015,-1.8014,-1.8005,-1.8006,-1.8006,-1.8005,-1.8004,-1.8,-1.7996,-1.8,-1.8,-1.7999,-1.7992,-1.799,-1.7989,-1.7984,-1.7987,-1.7986,-1.7986,-1.7986,-1.7975,-1.7975,0,0,0,0,0,0,-1.8016,-1.8015,-1.8006,-1.8005,-1.801,-1.8005,-1.8004,-1.8002,-1.7996,-1.7995,-1.7999,-1.7999,-1.7991,-1.799,-1.7989,-1.7985,-1.7986,-1.7986,-1.7986,-1.7975,-1.7975,-1.7975,0,0,0,0,0,0,-1.8017,-1.8015,-1.8006,-1.801,-1.8009,-1.8004,-1.8002,-1.8001,-1.8,-1.7995,-1.7994,-1.7998,-1.7991,-1.799,-1.7986,-1.7985,-1.7986,-1.7985,-1.7975,-1.7975,-1.7975,-1.7977,0,0,0,0,0,0,-1.8017,-1.8016,-1.8014,-1.801,-1.8008,-1.8003,-1.8002,-1.8001,-1.7999,-1.7999,-1.7994,-1.7993,-1.7991,-1.7986,-1.7985,-1.7984,-1.7985,-1.7976,-1.7975,-1.7975,-1.7977,-1.7977,-1.7977,0,0,0,0,0,-1.8017,-1.8015,-1.8014,-1.8013,-1.8007,-1.8003,-1.8002,-1.7999,-1.7999,-1.7998,-1.7995,-1.7993,-1.7985,-1.7986,-1.7985,-1.7984,-1.7976,-1.7975,-1.7975,-1.7977,-1.7977,-1.7977,0,0,0,0,0,0,-1.802,-1.8015,-1.8014,-1.801,-1.8007,-1.8002,-1.8001,-1.7999,-1.7996,-1.7996,-1.7992,-1.7991,-1.7988,-1.7985,-1.7986,-1.798,-1.798,-1.798,-1.7982,-1.7982,-1.7982,-1.7983,-1.7985,0,0,0,0,0,-1.802,-1.8017,-1.8013,-1.801,-1.8009,-1.8005,-1.8003,-1.8001,-1.7998,-1.7996,-1.7993,-1.799,-1.7986,-1.7984,-1.7981,-1.7977,-1.7976,-1.7976,-1.7976,-1.7976,-1.7975,-1.7973,-1.7973,-1.7975,-1.7975,-1.7975,0,0,-1.802,-1.8017,-1.8016,-1.8011,-1.8008,-1.8005,-1.8004,-1.8001,-1.7998,-1.7996,-1.7992,-1.7989,-1.7985,-1.7982,-1.798,-1.7979,-1.7975,-1.7976,-1.7976,-1.7975,-1.7973,-1.7973,-1.7973,-1.7975,-1.7975,-1.7975,0,0,-1.8019,-1.8017,-1.8014,-1.8011,-1.8007,-1.8005,-1.8004,-1.8,-1.7998,-1.7994,-1.7992,-1.7989,-1.7984,-1.7981,-1.7979,-1.7976,-1.7975,-1.7975,-1.7975,-1.7973,-1.7973,-1.7973,-1.7972,-1.7972,-1.7975,-1.7975,-1.7975,0,-1.802,-1.8016,-1.8013,-1.801,-1.8008,-1.8005,-1.8002,-1.8,-1.7995,-1.7993,-1.7993,-1.7986,-1.7983,-1.7979,-1.7978,-1.7976,-1.7976,-1.7976,-1.7973,-1.7973,-1.7973,-1.7972,-1.7972,-1.7975,-1.7975,-1.7975,-1.7975,0,-1.8017,-1.8014,-1.8012,-1.8008,-1.8005,-1.8002,-1.7999,-1.7997,-1.7995,-1.7993,-1.7989,-1.7985,-1.7981,-1.798,-1.7978,-1.7975,-1.7975,-1.7974,-1.7974,-1.7973,-1.7972,-1.7972,-1.7975,-1.7975,-1.7975,-1.7975,0,0,-1.8018,-1.8011,-1.8011,-1.8008,-1.8004,-1.8001,-1.7998,-1.7994,-1.7992,-1.7989,-1.7986,-1.7982,-1.7981,-1.7978,-1.7976,-1.7974,-1.7973,-1.7974,-1.7974,-1.7974,-1.7969,-1.797,-1.7969,-1.7972,-1.7972,-1.7972,-1.7969,0,-1.8016,-1.801,-1.8008,-1.8003,-1.8,-1.7998,-1.7995,-1.7992,-1.799,-1.7987,-1.7984,-1.7981,-1.798,-1.7978,-1.7976,-1.7974,-1.7972,-1.7974,-1.7969,-1.7969,-1.797,-1.7969,-1.7969,-1.7967,-1.7969,-1.7969,-1.7969,0,-1.8013,-1.801,-1.8005,-1.8001,-1.7999,-1.7997,-1.7993,-1.799,-1.7987,-1.7985,-1.7982,-1.798,-1.7977,-1.7977,-1.7972,-1.7973,-1.7971,-1.797,-1.7969,-1.7969,-1.7969,-1.7968,-1.7967,-1.7966,-1.7968,-1.7968,-1.7969,0,-1.8014,-1.8008,-1.8005,-1.8003,-1.7998,-1.7996,-1.7994,-1.799,-1.7988,-1.7984,-1.7983,-1.7979,-1.7977,-1.7974,-1.7971,-1.7971,-1.7966,-1.7966,-1.7965,-1.7965,-1.7964,-1.7964,-1.7962,-1.7963,-1.7963,-1.7963,-1.7963,0,-1.8012,-1.8009,-1.8005,-1.8003,-1.8,-1.7996,-1.7993,-1.7991,-1.7987,-1.7985,-1.7982,-1.798,-1.7976,-1.7973,-1.7971,-1.7967,-1.7966,-1.7964,-1.7964,-1.7965,-1.7965,-1.7963,-1.7963,-1.7963,-1.7963,-1.7963,-1.7963,0,-1.8012,-1.8009,-1.8005,-1.8001,-1.7999,-1.7997,-1.7993,-1.7991,-1.7988,-1.7985,-1.7984,-1.798,-1.7976,-1.7973,-1.7968,-1.7966,-1.7962,-1.7962,-1.7964,-1.7963,-1.7962,-1.7962,-1.7959,-1.7958,-1.796,-1.796,-1.796,0,-1.8012,-1.8009,-1.8004,-1.8002,-1.8,-1.7997,-1.7995,-1.7991,-1.7989,-1.7985,-1.7983,-1.7979,-1.7976,-1.797,-1.7966,-1.7963,-1.7962,-1.7961,-1.7961,-1.7962,-1.7962,-1.7962,-1.7961,-1.7961,-1.7961,-1.7961,-1.7961,0,-1.801,-1.8009,-1.8006,-1.8002,-1.7999,-1.7996,-1.7993,-1.7991,-1.7987,-1.7985,-1.7981,-1.7978,-1.7973,-1.7969,-1.7965,-1.7963,-1.7961,-1.7961,-1.796,-1.7961,-1.7962,-1.7961,-1.7964,-1.7961,-1.7961,-1.7961,-1.7961,-1.7961,-1.801,-1.8008,-1.8004,-1.8,-1.7997,-1.7994,-1.7992,-1.7989,-1.7986,-1.7982,-1.798,-1.7976,-1.7972,-1.7966,-1.7964,-1.7961,-1.7961,-1.796,-1.796,-1.7959,-1.7959,-1.7963,-1.796,-1.796,-1.796,-1.796,-1.796,0,-1.8008,-1.8006,-1.8002,-1.7998,-1.7995,-1.7994,-1.799,-1.7988,-1.7984,-1.7981,-1.7978,-1.7973,-1.797,-1.7966,-1.7962,-1.796,-1.7959,-1.7959,-1.7959,-1.7959,-1.796,-1.7961,-1.796,-1.796,-1.796,-1.796,-1.796,-1.796,-1.8007,-1.8004,-1.8002,-1.7996,-1.7994,-1.799,-1.7988,-1.7985,-1.7982,-1.7977,-1.7974,-1.7972,-1.7968,-1.7964,-1.7961,-1.796,-1.7958,-1.7958,-1.7957,-1.7958,-1.7959,-1.7959,-1.7959,-1.7958,-1.7958,-1.7956,-1.7956,-1.7956]},{"header":{"parameterUnit":"m.s-1","parameterCategory":1,"la1":30.2991,"la2":30.254,"lo1":-89.0895,"lo2":-89.0444,"dy":0.0017,"dx":0.0017,"nx":28,"ny":28,"refTime":"2023-04-03T21:00:00:Z","depth":0,"parameterNumber":3,"parameterNumberName":"V-component_of_WINDS"},"data":[0,0,0,0,0,0,0,0,0,0,0,0,0,0,0,0,0,0,0,0,0,0,0,0,0,0,0,0,0,0,0,0,0,0,0,0,0,0,0,0,0,0,0,0,0,0,0,0,0,0,0,0,0,0,0,0,0,0,4.5675,4.5676,0,4.5725,4.5725,4.5726,4.5702,4.5701,4.5699,4.5698,4.5744,4.5746,4.5749,0,0,0,0,0,0,0,0,0,0,0,0,0,4.5557,4.5559,4.5675,4.5676,4.5677,4.5725,4.5725,4.5726,4.5702,4.5701,4.5699,4.5698,4.5743,4.5746,4.5749,0,0,0,0,0,0,0,0,0,0,0,0,0,4.5607,4.556,4.5675,4.5671,4.5671,4.5725,4.5725,4.5726,4.5702,4.5701,4.5699,4.5697,4.5742,4.5746,4.5749,4.5809,0,0,4.576,4.5762,0,0,0,0,0,0,0,0,4.5604,4.5612,4.5671,4.5671,4.5671,4.5705,4.57,4.5754,4.5703,4.569,4.5698,4.5696,4.5732,4.5737,4.575,4.5811,4.5813,4.576,4.5763,4.5764,4.5765,0,0,0,0,0,0,0,4.5601,4.5609,4.5695,4.5671,4.5672,4.5665,4.567,4.571,4.5721,4.5691,4.569,4.5696,4.5732,4.5746,4.5751,4.5814,4.576,4.5763,4.5766,4.5767,4.5929,4.5931,0,0,0,0,0,0,4.5598,4.5607,4.5693,4.5696,4.5633,4.5669,4.5674,4.5696,4.5721,4.5723,4.5698,4.5695,4.5741,4.5746,4.5752,4.5826,4.5764,4.5767,4.577,4.5927,4.593,4.5932,0,0,0,0,0,0,4.5596,4.5606,4.5691,4.5651,4.5661,4.5673,4.5697,4.5698,4.5713,4.5725,4.5727,4.5711,4.574,4.5747,4.5796,4.5827,4.5769,4.5772,4.5925,4.5928,4.5931,4.5974,0,0,0,0,0,0,4.5592,4.5605,4.5629,4.5652,4.5664,4.5735,4.5699,4.57,4.5719,4.5716,4.5738,4.574,4.5739,4.5791,4.58,4.5831,4.5775,4.5922,4.5926,4.593,4.5969,4.5978,4.5985,0,0,0,0,0,4.5588,4.5637,4.563,4.5641,4.5694,4.5737,4.5744,4.5743,4.5722,4.5746,4.5754,4.5739,4.5822,4.5796,4.5806,4.5839,4.592,4.5925,4.593,4.5966,4.5976,4.5985,0,0,0,0,0,0,4.5615,4.564,4.5633,4.569,4.5712,4.5733,4.5763,4.5754,4.578,4.5776,4.5773,4.5778,4.5829,4.5838,4.5809,4.5899,4.5868,4.5875,4.5892,4.5902,4.5909,4.5907,4.5778,0,0,0,0,0,4.5628,4.5663,4.5682,4.5731,4.5743,4.5751,4.577,4.5768,4.579,4.5798,4.581,4.583,4.5861,4.5882,4.591,4.597,4.5975,4.5998,4.6005,4.6012,4.6019,4.6053,4.6064,4.5948,4.5948,4.5948,0,0,4.5655,4.5673,4.5694,4.5737,4.5754,4.579,4.5759,4.5797,4.5823,4.5803,4.5852,4.5861,4.5883,4.5939,4.5964,4.5948,4.6052,4.6018,4.6023,4.6026,4.6059,4.607,4.608,4.5951,4.5951,4.595,0,0,4.5722,4.5738,4.5783,4.5801,4.5828,4.5833,4.5844,4.5867,4.5873,4.5922,4.5908,4.5939,4.5991,4.6009,4.6025,4.6101,4.6089,4.611,4.6152,4.6186,4.6195,4.6203,4.6233,4.6243,4.6117,4.6117,4.6117,0,4.5751,4.5806,4.5806,4.5847,4.5867,4.5853,4.5898,4.5914,4.5948,4.5962,4.5944,4.6013,4.6026,4.6087,4.6106,4.6118,4.6131,4.6109,4.6194,4.6202,4.621,4.6238,4.6249,4.6119,4.6119,4.6119,4.6119,0,4.5842,4.5881,4.5913,4.595,4.5973,4.6015,4.6021,4.6044,4.6041,4.6048,4.6098,4.6115,4.6148,4.6162,4.6157,4.6223,4.6213,4.6194,4.6163,4.6224,4.625,4.6261,4.6123,4.6122,4.6121,4.6121,0,0,4.5928,4.5966,4.5978,4.5996,4.6025,4.6054,4.6096,4.6131,4.6152,4.6175,4.6211,4.6257,4.6242,4.626,4.6257,4.6286,4.6349,4.6265,4.6265,4.6282,4.6425,4.6441,4.6453,4.6341,4.6343,4.6345,4.6424,0,4.6,4.6076,4.6078,4.6148,4.6184,4.6172,4.6209,4.623,4.6238,4.6269,4.6277,4.6311,4.6286,4.6298,4.6326,4.6336,4.6378,4.633,4.6375,4.6377,4.6372,4.6467,4.6483,4.6557,4.6434,4.6436,4.6437,0,4.6094,4.6124,4.6198,4.6225,4.624,4.6274,4.6307,4.6337,4.6361,4.6365,4.6387,4.638,4.6423,4.6389,4.6448,4.6415,4.6434,4.6441,4.6444,4.645,4.6412,4.6477,4.658,4.6593,4.6453,4.6452,4.6451,0,4.6153,4.6211,4.6264,4.6279,4.6311,4.6335,4.6349,4.6371,4.6393,4.6422,4.6436,4.6468,4.6486,4.6511,4.6513,4.6488,4.6574,4.6539,4.6579,4.6579,4.6599,4.6598,4.6709,4.6607,4.6607,4.6606,4.6606,0,4.6234,4.628,4.6292,4.6325,4.6376,4.6378,4.6429,4.644,4.6461,4.6496,4.6485,4.6517,4.6517,4.655,4.6551,4.6602,4.6609,4.6614,4.6614,4.6616,4.6616,4.663,4.6626,4.6609,4.6609,4.6608,4.6608,0,4.6309,4.6318,4.6376,4.6402,4.641,4.6447,4.6469,4.65,4.6507,4.6551,4.6562,4.6573,4.6611,4.6616,4.6659,4.666,4.6722,4.6715,4.6715,4.6715,4.6755,4.6753,4.6881,4.6899,4.6782,4.6784,4.6784,0,4.6362,4.6398,4.6429,4.6453,4.6469,4.6506,4.6529,4.6532,4.6556,4.6588,4.6616,4.6653,4.6684,4.6745,4.6757,4.6791,4.6786,4.6829,4.6791,4.6793,4.679,4.6789,4.6794,4.6837,4.6838,4.6839,4.684,0,4.6455,4.6459,4.6493,4.6531,4.656,4.6588,4.6615,4.6634,4.664,4.6668,4.6709,4.6733,4.6779,4.6817,4.6851,4.6863,4.6854,4.6852,4.6863,4.6867,4.6867,4.687,4.6738,4.6849,4.6848,4.6847,4.6847,4.6847,4.6522,4.6555,4.6584,4.6623,4.6644,4.667,4.6702,4.6715,4.6749,4.6789,4.6788,4.6833,4.6857,4.6902,4.6918,4.6953,4.6938,4.6954,4.6959,4.6963,4.6969,4.6859,4.6958,4.6958,4.6958,4.6957,4.6957,0,4.6618,4.6636,4.6673,4.6713,4.6744,4.6733,4.6763,4.679,4.6831,4.6855,4.6886,4.6934,4.6971,4.6986,4.7023,4.7048,4.7044,4.7058,4.7057,4.7061,4.6978,4.6966,4.706,4.706,4.706,4.706,4.706,4.706,4.6671,4.6728,4.6735,4.6801,4.6818,4.6865,4.6883,4.6907,4.6927,4.6982,4.7014,4.7024,4.7045,4.7083,4.7117,4.7121,4.7136,4.7152,4.7153,4.7076,4.7066,4.7056,4.7045,4.7154,4.7154,4.7233,4.7234,4.7235]}]]